FW4213 Weather Reports


Display with metric or nautical units.
time (UTC)temp
F
wind
direction
speed
MPH
gust
MPH
rain 1hr
in
rain 24hr
in
rain mn
in
humidity
%
barometer
mb
20260508074537 52 202 0.0 1.0 0.00 0.00 0.00 59 1017.8
20260508071609 53 202 0.0 1.0 0.00 0.00 0.00 59 1017.7
20260508070109 53 261 0.0 3.0 0.00 0.00 0.00 58 1017.7
20260508064535 53 187 0.0 2.0 0.00 0.00 0.00 57 1017.7
20260508063035 54 202 0.0 2.0 0.00 0.00 0.00 56 1017.7
20260508061537 55 237 0.0 2.0 0.00 0.00 0.00 53 1017.7
20260508054532 56 247 0.0 2.0 0.00 0.00 0.00 52 1017.7
20260508053035 56 231 1.0 3.0 0.00 0.00 0.00 51 1017.7
20260508051534 57 242 1.0 5.0 0.00 0.00 0.00 50 1017.6
20260508050030 57 223 2.0 6.0 0.00 0.00 0.00 49 1017.5
20260508044533 57 211 0.0 4.0 0.00 0.00 0.00 49 1017.5
20260508043109 57 201 0.0 4.0 0.00 0.00 0.00 47 1017.5
20260508041530 58 215 1.0 4.0 0.00 0.00 0.00 43 1017.4
20260508033036 62 237 3.0 9.0 0.00 0.00 0.00 33 1016.8
20260508031537 62 248 3.0 9.0 0.00 0.00 0.00 31 1016.7
20260508023029 66 245 4.0 10.0 0.00 0.00 0.00 25 1016.3
20260508020030 69 254 4.0 14.0 0.00 0.00 0.00 24 1016.2
20260508014535 69 267 3.0 13.0 0.00 0.00 0.00 25 1016.1
20260508013036 70 277 2.0 10.0 0.00 0.00 0.00 24 1016.3
20260508011532 70 274 4.0 10.0 0.00 0.00 0.00 24 1016.5
20260508010032 70 288 3.0 11.0 0.00 0.00 0.00 25 1016.7
20260508003031 72 277 3.0 10.0 0.00 0.00 0.00 23 1016.7
20260508001536 74 285 2.0 9.0 0.00 0.00 0.00 22 1016.7
20260508000039 74 283 4.0 12.0 0.00 0.00 0.00 22 1016.7
20260507234536 74 270 3.0 11.0 0.00 0.00 0.00 23 1016.7
20260507231528 74 272 3.0 9.0 0.00 0.00 0.00 27 1016.9
20260507230032 74 257 4.0 10.0 0.00 0.00 0.00 29 1017.0
20260507224534 74 259 4.0 11.0 0.00 0.00 0.00 30 1017.2
20260507220033 74 274 5.0 17.0 0.00 0.00 0.00 29 1017.4
20260507210030 73 247 3.0 11.0 0.00 0.00 0.00 36 1017.8
20260507204608 72 283 4.0 11.0 0.00 0.00 0.00 37 1017.9
20260507203037 71 283 4.0 13.0 0.00 0.00 0.00 37 1018.1
20260507201537 71 278 3.0 13.0 0.00 0.00 0.00 38 1018.3
20260507200110 70 282 3.0 10.0 0.00 0.00 0.00 39 1018.4
20260507194532 69 284 4.0 10.0 0.00 0.00 0.00 37 1018.6
20260507193034 69 269 3.0 12.0 0.00 0.00 0.00 36 1018.9
20260507191529 70 263 3.0 12.0 0.00 0.00 0.00 36 1019.0
20260507190105 68 254 2.0 10.0 0.00 0.00 0.00 36 1019.1
20260507184610 66 262 2.0 8.0 0.00 0.00 0.00 41 1019.4
20260507181537 65 266 3.0 11.0 0.00 0.00 0.00 48 1019.7
20260507174642 64 264 4.0 11.0 0.00 0.00 0.00 51 1019.8
20260507171605 62 247 4.0 13.0 0.00 0.00 0.00 55 1020.0
20260507170034 61 258 5.0 15.0 0.00 0.00 0.00 57 1020.2
20260507161539 60 246 3.0 10.0 0.00 0.00 0.00 62 1020.6
20260507160036 60 246 2.0 6.0 0.00 0.00 0.00 63 1020.8
20260507151536 57 251 2.0 5.0 0.00 0.00 0.00 69 1021.1
20260507150038 56 235 3.0 9.0 0.00 0.00 0.00 71 1021.1
20260507144537 55 251 3.0 11.0 0.00 0.00 0.00 73 1021.1
20260507143032 53 235 2.0 8.0 0.00 0.00 0.00 77 1021.0
20260507141532 52 118 1.0 5.0 0.00 0.00 0.00 81 1020.9
20260507140141 51 212 1.0 5.0 0.00 0.00 0.00 83 1020.7
20260507134612 51 238 1.0 10.0 0.00 0.00 0.00 84 1020.6
20260507133032 50 218 1.0 7.0 0.00 0.00 0.00 83 1020.4
20260507131531 51 249 1.0 4.0 0.00 0.00 0.00 81 1020.3
20260507130109 51 23 1.0 6.0 0.00 0.00 0.00 81 1020.2
20260507124643 52 72 2.0 6.0 0.00 0.00 0.00 79 1020.1
20260507123030 53 199 1.0 9.0 0.00 0.00 0.00 79 1020.1
20260507120036 53 278 1.0 8.0 0.00 0.00 0.00 78 1020.0
20260507114609 53 326 2.0 12.0 0.00 0.00 0.00 78 1019.9
20260507113031 54 239 1.0 6.0 0.00 0.00 0.00 77 1019.8
20260507111531 54 313 4.0 14.0 0.00 0.00 0.00 77 1019.8
20260507110030 54 319 3.0 16.0 0.00 0.00 0.00 78 1019.6
20260507104532 54 139 3.0 12.0 0.00 0.00 0.00 78 1019.4
20260507103032 54 229 4.0 12.0 0.00 0.00 0.00 78 1019.4
20260507101531 55 237 3.0 11.0 0.00 0.00 0.00 78 1019.4
20260507100039 55 248 3.0 13.0 0.00 0.00 0.00 78 1019.3
20260507094531 55 236 4.0 11.0 0.00 0.00 0.00 77 1019.4
20260507091530 56 249 4.0 10.0 0.00 0.00 0.00 76 1019.6
20260507090031 56 230 3.0 9.0 0.00 0.00 0.00 76 1019.6
20260507084534 57 245 4.0 14.0 0.00 0.00 0.00 76 1019.6
20260507083109 57 255 4.0 12.0 0.00 0.00 0.00 76 1019.3